When you browse on this site, cookies collect data to enhance your experience and personalize the content and advertising you see.
Visit our Privacy Policy to learn more. By continuing to use the site, you agree to this use of cookies and data.
  • In Spain
  • List of Countries
  • For 7 days
  • Water Temperature
  • Weather Map
  • Weather Widgets
  • user-avatar
    Login

    Hourly Weather Velikaya Pisarevka

    Today, 4 June, Thursday

    Time Temperature Precipitation Wind Pressure Humidity
    00:00 +13°C° 0.6 mm 2 mps 742 mmHg 90%
    01:00 +13°C° 0.6 mm 2 mps 742 mmHg 92%
    02:00 +12°C° 0.6 mm 2 mps 742 mmHg 95%
    03:00 +12°C° 0.5 mm 2 mps 742 mmHg 95%
    04:00 +12°C° 0.5 mm 2 mps 742 mmHg 96%
    05:00 +12°C° 0.5 mm 2 mps 743 mmHg 96%
    06:00 +12°C° 0.1 mm 3 mps 743 mmHg 92%
    07:00 +13°C° 0.1 mm 3 mps 743 mmHg 88%
    08:00 +14°C° 0.1 mm 4 mps 743 mmHg 84%
    09:00 +15°C° 0.3 mm 5 mps 744 mmHg 80%
    10:00 +16°C° 0.3 mm 5 mps 744 mmHg 76%
    11:00 +17°C° 0.3 mm 6 mps 744 mmHg 73%
    12:00 +17°C° 0.2 mm 6 mps 744 mmHg 71%
    13:00 +19°C° 0.2 mm 6 mps 744 mmHg 69%
    14:00 +19°C° 0.2 mm 5 mps 745 mmHg 67%
    15:00 +19°C° 0.3 mm 5 mps 745 mmHg 70%
    16:00 +18°C° 0.3 mm 4 mps 745 mmHg 73%
    17:00 +18°C° 0.3 mm 4 mps 745 mmHg 76%
    18:00 +17°C° 0.1 mm 4 mps 745 mmHg 80%
    19:00 +15°C° 0.1 mm 4 mps 745 mmHg 84%
    20:00 +13°C° 0.1 mm 4 mps 745 mmHg 88%
    21:00 +13°C° 0.2 mm 4 mps 745 mmHg 88%
    22:00 +12°C° 0.2 mm 4 mps 745 mmHg 89%
    23:00 +12°C° 0.2 mm 4 mps 746 mmHg 89%

    Tomorrow, 5 June, Friday

    Time Temperature Precipitation Wind Pressure Humidity
    00:00 +12°C° 0 mm 4 mps 746 mmHg 89%
    01:00 +11°C° 0 mm 4 mps 746 mmHg 89%
    02:00 +11°C° 0 mm 4 mps 746 mmHg 89%
    03:00 +11°C° 0 mm 4 mps 746 mmHg 89%
    04:00 +10°C° 0 mm 5 mps 746 mmHg 89%
    05:00 +10°C° 0 mm 5 mps 746 mmHg 90%
    06:00 +11°C° 0 mm 6 mps 746 mmHg 87%
    07:00 +14°C° 0 mm 7 mps 746 mmHg 84%
    08:00 +15°C° 0 mm 7 mps 746 mmHg 81%
    09:00 +13°C° 1.1 mm 8 mps 746 mmHg 85%
    10:00 +13°C° 1.1 mm 8 mps 746 mmHg 89%
    11:00 +13°C° 1.1 mm 8 mps 746 mmHg 93%
    12:00 +14°C° 0.6 mm 7 mps 746 mmHg 94%
    13:00 +15°C° 0.6 mm 7 mps 746 mmHg 94%
    14:00 +15°C° 0.6 mm 6 mps 745 mmHg 94%
    15:00 +17°C° 0.2 mm 5 mps 746 mmHg 91%
    16:00 +19°C° 0.2 mm 5 mps 746 mmHg 88%
    17:00 +20°C° 0.2 mm 4 mps 746 mmHg 85%
    18:00 +19°C° 0.4 mm 4 mps 746 mmHg 87%
    19:00 +18°C° 0.4 mm 4 mps 746 mmHg 89%
    20:00 +17°C° 0.4 mm 4 mps 746 mmHg 92%
    21:00 +17°C° 0.6 mm 4 mps 747 mmHg 92%
    22:00 +17°C° 0.6 mm 4 mps 747 mmHg 92%
    23:00 +17°C° 0.6 mm 4 mps 747 mmHg 92%

    Day after tomorrow, 6 June, Saturday

    Time Temperature Precipitation Wind Pressure Humidity
    00:00 +15°C° 0.1 mm 4 mps 747 mmHg 92%
    01:00 +15°C° 0.1 mm 4 mps 748 mmHg 93%
    02:00 +14°C° 0.1 mm 3 mps 748 mmHg 94%
    03:00 +14°C° 0 mm 4 mps 748 mmHg 94%
    04:00 +14°C° 0 mm 4 mps 748 mmHg 93%
    05:00 +14°C° 0 mm 4 mps 748 mmHg 93%
    06:00 +15°C° 0 mm 4 mps 749 mmHg 90%
    07:00 +17°C° 0 mm 5 mps 749 mmHg 86%
    08:00 +19°C° 0 mm 5 mps 750 mmHg 83%
    09:00 +20°C° 0 mm 5 mps 750 mmHg 79%
    10:00 +22°C° 0 mm 6 mps 750 mmHg 76%
    11:00 +23°C° 0 mm 6 mps 750 mmHg 72%
    12:00 +24°C° 0 mm 6 mps 750 mmHg 70%
    13:00 +24°C° 0 mm 6 mps 750 mmHg 68%
    14:00 +26°C° 0 mm 6 mps 750 mmHg 66%
    15:00 +26°C° 0 mm 5 mps 750 mmHg 69%
    16:00 +26°C° 0 mm 4 mps 750 mmHg 72%
    17:00 +25°C° 0 mm 3 mps 750 mmHg 75%
    18:00 +24°C° 0 mm 3 mps 750 mmHg 78%
    19:00 +21°C° 0 mm 3 mps 750 mmHg 80%
    20:00 +19°C° 0 mm 2 mps 751 mmHg 83%
    21:00 +19°C° 0 mm 3 mps 751 mmHg 85%
    22:00 +18°C° 0 mm 3 mps 751 mmHg 87%
    23:00 +18°C° 0 mm 3 mps 751 mmHg 88%

    7 June, Sunday

    Time Temperature Precipitation Wind Pressure Humidity
    00:00 +17°C° 0 mm 3 mps 751 mmHg 88%
    01:00 +16°C° 0 mm 3 mps 751 mmHg 87%
    02:00 +16°C° 0 mm 2 mps 751 mmHg 87%
    03:00 +16°C° 0 mm 2 mps 752 mmHg 87%
    04:00 +16°C° 0 mm 2 mps 752 mmHg 87%
    05:00 +16°C° 0 mm 2 mps 752 mmHg 87%
    06:00 +18°C° 0 mm 2 mps 752 mmHg 83%
    07:00 +20°C° 0 mm 3 mps 752 mmHg 79%
    08:00 +21°C° 0 mm 3 mps 752 mmHg 76%
    09:00 +22°C° 0 mm 3 mps 753 mmHg 73%
    10:00 +25°C° 0 mm 3 mps 753 mmHg 70%
    11:00 +26°C° 0 mm 4 mps 753 mmHg 67%
    12:00 +27°C° 0 mm 3 mps 753 mmHg 66%
    13:00 +27°C° 0 mm 3 mps 752 mmHg 65%
    14:00 +28°C° 0 mm 3 mps 752 mmHg 64%
    15:00 +27°C° 0 mm 3 mps 752 mmHg 68%
    16:00 +27°C° 0 mm 2 mps 752 mmHg 71%
    17:00 +27°C° 0 mm 2 mps 751 mmHg 75%
    18:00 +25°C° 0 mm 2 mps 751 mmHg 78%
    19:00 +24°C° 0 mm 2 mps 751 mmHg 80%
    20:00 +21°C° 0 mm 3 mps 751 mmHg 83%
    21:00 +21°C° 0 mm 3 mps 751 mmHg 84%
    22:00 +20°C° 0 mm 3 mps 752 mmHg 86%
    23:00 +19°C° 0 mm 3 mps 752 mmHg 88%

    8 June, Monday

    Time Temperature Precipitation Wind Pressure Humidity
    00:00 +19°C° 0 mm 3 mps 752 mmHg 89%
    01:00 +18°C° 0 mm 3 mps 751 mmHg 90%
    02:00 +18°C° 0 mm 3 mps 751 mmHg 91%
    03:00 +18°C° 0 mm 3 mps 751 mmHg 90%
    04:00 +18°C° 0 mm 3 mps 751 mmHg 90%
    05:00 +18°C° 0 mm 3 mps 751 mmHg 90%
    06:00 +20°C° 0 mm 4 mps 751 mmHg 85%
    07:00 +22°C° 0 mm 5 mps 751 mmHg 80%
    08:00 +23°C° 0 mm 5 mps 751 mmHg 75%
    09:00 +26°C° 0 mm 5 mps 751 mmHg 71%
    10:00 +27°C° 0 mm 5 mps 751 mmHg 67%
    11:00 +28°C° 0 mm 6 mps 751 mmHg 63%
    12:00 +28°C° 0 mm 5 mps 751 mmHg 61%
    13:00 +29°C° 0 mm 5 mps 751 mmHg 60%
    14:00 +29°C° 0 mm 5 mps 751 mmHg 59%
    15:00 +29°C° 0 mm 5 mps 750 mmHg 63%
    16:00 +29°C° 0 mm 4 mps 750 mmHg 68%
    17:00 +28°C° 0 mm 3 mps 750 mmHg 73%
    18:00 +27°C° 0 mm 3 mps 750 mmHg 75%
    19:00 +25°C° 0 mm 4 mps 750 mmHg 77%
    20:00 +22°C° 0 mm 4 mps 750 mmHg 79%
    21:00 +22°C° 0 mm 4 mps 750 mmHg 79%
    22:00 +21°C° 0 mm 4 mps 750 mmHg 80%
    23:00 +21°C° 0 mm 4 mps 751 mmHg 81%

    9 June, Tuesday

    Time Temperature Precipitation Wind Pressure Humidity
    00:00 +20°C° 0 mm 4 mps 751 mmHg 81%
    01:00 +20°C° 0 mm 3 mps 751 mmHg 82%
    02:00 +20°C° 0 mm 3 mps 750 mmHg 82%
    03:00 +20°C° 0 mm 4 mps 750 mmHg 83%
    04:00 +20°C° 0 mm 4 mps 750 mmHg 84%
    05:00 +20°C° 0 mm 4 mps 750 mmHg 85%
    06:00 +21°C° 0 mm 4 mps 751 mmHg 82%
    07:00 +23°C° 0 mm 5 mps 751 mmHg 79%
    08:00 +25°C° 0 mm 5 mps 751 mmHg 76%
    09:00 +26°C° 0.1 mm 5 mps 751 mmHg 73%
    10:00 +27°C° 0.1 mm 6 mps 751 mmHg 70%
    11:00 +28°C° 0.1 mm 6 mps 751 mmHg 67%
    12:00 +29°C° 0.2 mm 6 mps 751 mmHg 65%
    13:00 +29°C° 0.2 mm 6 mps 751 mmHg 64%
    14:00 +30°C° 0.2 mm 5 mps 750 mmHg 62%
    15:00 +29°C° 0.4 mm 5 mps 750 mmHg 67%
    16:00 +29°C° 0.4 mm 4 mps 750 mmHg 71%
    17:00 +28°C° 0.4 mm 3 mps 750 mmHg 75%
    18:00 +27°C° 0.1 mm 4 mps 750 mmHg 79%
    19:00 +25°C° 0.1 mm 4 mps 750 mmHg 82%
    20:00 +23°C° 0.1 mm 4 mps 750 mmHg 85%
    21:00 +22°C° 0 mm 4 mps 750 mmHg 86%
    22:00 +22°C° 0 mm 4 mps 750 mmHg 86%
    23:00 +21°C° 0 mm 4 mps 750 mmHg 87%
    Show more